Wind_Speed
17 18 18 18 19 19 20 21 20 18 18 21 19 14 12 13 14 15 16 16 19 20 18 18 17 17 18 20 23 26 26 26 25 25 24 24 25 27 28 28 26 26 27 27 26 25 23 22 22 23 24 23 21 21 20 20 19 19 18 18 17 17 17 17 16 15 15 15 14 14 13 12 11 10 9 9 11 12 12 13 14 15 17 18 18
19 20 20 19 19 18 19 20 20 18 16 16 16 13 13 14 15 16 16 18 19 18 17 18 17 17 20 21 23 24 24 24 25 25 24 25 25 26 26 27 26 25 24 24 24 23 22 21 21 23 24 23 22 22 21 21 20 19 19 18 18 17 17 17 18 17 16 16 16 15 14 13 11 10 8 8 10 12 13 14 15 16 17 18 18
20 20 21 21 20 20 20 20 19 18 17 15 14 14 17 20 22 22 21 21 22 20 18 18 18 19 21 23 23 24 25 24 25 25 23 24 25 25 25 26 25 24 23 23 23 23 22 21 22 23 23 23 23 23 23 22 21 20 20 19 19 18 18 19 19 18 18 18 17 16 15 14 12 11 9 8 9 11 13 14 15 16 17 17 18
20 20 20 20 20 20 20 20 20 19 18 17 15 14 17 20 23 25 23 21 22 21 20 20 19 20 22 24 24 25 26 27 27 25 23 23 24 24 25 25 24 23 23 23 23 22 22 22 22 23 23 23 22 23 23 22 21 21 21 21 20 19 19 19 20 20 20 19 19 18 16 15 14 12 10 9 9 11 12 14 15 16 17 17 18
20 19 19 19 18 19 19 20 21 20 19 19 18 17 16 18 21 23 23 21 21 22 23 22 21 21 24 25 25 25 26 27 29 27 23 22 23 24 25 25 24 24 24 23 23 23 23 23 23 23 23 22 22 22 23 23 22 22 22 21 20 20 19 20 21 21 21 20 20 19 18 17 15 14 12 10 10 11 12 13 15 16 17 17 17
20 19 19 18 18 18 18 19 21 21 21 20 20 19 18 18 19 21 22 22 22 23 24 22 20 21 23 25 25 25 25 27 29 28 25 23 22 22 23 23 23 23 23 23 23 23 23 23 24 23 23 22 21 21 22 23 23 23 22 21 21 20 20 21 21 22 22 21 21 21 20 18 16 15 13 12 11 12 12 13 14 15 17 17 17
20 20 20 20 20 19 19 19 20 22 22 22 21 21 20 19 19 19 20 21 21 21 21 21 21 21 23 25 26 25 26 27 28 27 25 24 22 21 22 23 21 22 23 24 24 24 24 23 23 23 22 22 22 22 23 24 25 25 23 22 22 21 21 21 22 22 22 22 23 23 22 20 17 15 14 14 13 13 11 11 11 13 15 16 16
22 22 22 22 22 22 21 21 21 22 23 22 22 22 23 21 20 20 19 19 18 17 18 20 21 22 23 25 24 23 25 28 28 25 22 22 21 21 23 23 21 21 23 24 24 24 24 23 23 23 23 23 24 25 25 26 26 25 23 22 22 21 21 22 22 23 24 25 25 25 24 22 19 17 15 14 13 11 9 9 10 12 14 15 15
24 24 23 23 24 24 24 24 23 24 24 23 22 22 24 24 23 21 20 19 18 17 17 18 21 22 23 24 24 25 26 28 29 26 22 20 21 22 23 23 22 22 23 24 24 24 23 23 23 24 24 24 25 25 25 25 24 23 21 21 22 22 23 23 23 24 25 25 24 24 25 24 21 18 16 14 13 10 10 12 12 12 13 14 15
26 25 25 24 25 25 26 27 26 26 26 26 24 22 22 25 26 25 23 20 19 19 18 18 20 22 22 22 25 27 28 28 29 27 24 21 21 22 23 23 22 23 24 24 24 24 23 22 23 24 24 24 24 24 23 23 22 21 21 22 22 22 23 23 23 23 24 23 23 24 25 25 22 19 17 15 14 13 13 15 15 14 14 14 15
26 26 25 25 25 26 27 28 29 28 27 27 26 24 22 23 25 27 27 24 21 21 19 17 18 22 22 21 24 29 30 29 29 29 26 23 22 22 23 23 23 23 23 24 24 24 23 22 22 23 24 23 23 22 22 22 21 21 21 21 21 21 22 22 22 22 22 22 23 24 23 22 23 21 19 18 17 15 14 16 18 18 17 16 16
24 25 25 25 25 25 26 28 29 28 28 27 26 25 24 23 22 24 27 27 25 23 21 17 17 21 23 21 23 28 31 30 31 31 28 24 23 23 24 24 23 23 22 22 23 23 23 23 22 22 22 22 22 22 22 22 21 21 21 21 21 20 21 21 21 21 21 22 23 23 21 21 24 24 21 19 18 17 16 17 19 20 20 20 19
23 23 23 24 24 24 24 25 26 26 26 26 26 25 25 24 22 21 23 26 27 25 23 20 17 19 23 22 22 26 31 33 33 32 30 27 24 24 25 25 24 23 22 22 22 22 22 21 21 21 22 22 22 22 22 22 21 21 21 21 21 21 21 21 22 21 21 21 22 23 23 24 26 25 23 22 20 19 19 18 19 21 21 21 21
21 21 22 22 22 22 22 22 21 23 24 24 25 25 25 23 21 20 21 24 27 26 24 23 20 19 21 23 23 25 30 34 32 30 30 29 26 25 26 25 24 24 23 23 22 22 22 21 21 22 22 21 21 22 22 22 22 22 22 21 22 22 22 22 22 21 21 22 22 22 24 27 28 27 26 25 23 21 21 19 19 20 21 21 21
19 20 20 21 21 21 21 20 18 18 20 22 23 24 24 21 19 19 20 22 26 25 24 24 24 23 23 25 25 25 29 32 31 30 31 29 28 28 27 25 24 24 23 22 21 21 21 21 22 22 21 20 21 21 22 22 22 23 23 22 23 23 22 22 22 21 21 22 22 23 24 27 28 29 27 26 24 22 22 22 21 21 22 22 23
18 19 19 19 19 19 20 19 18 16 16 18 20 22 22 20 16 16 19 21 24 26 27 26 26 26 27 27 27 27 29 31 33 32 31 30 29 29 27 25 25 24 23 22 21 20 21 21 21 22 22 21 21 21 22 22 23 23 23 23 23 23 22 22 22 21 22 22 22 23 24 24 26 28 27 25 25 24 24 25 25 24 24 25 26
17 18 18 18 19 18 18 18 18 16 14 16 18 20 20 20 15 13 17 21 22 25 27 28 27 27 28 30 30 29 30 33 34 33 32 32 30 28 26 26 26 25 24 23 21 21 21 21 22 24 23 21 20 21 22 22 23 23 22 23 23 24 23 23 22 22 22 22 21 23 25 25 25 26 27 27 27 27 27 28 28 27 28 29 30
17 18 18 18 19 20 20 19 19 18 16 15 17 18 19 19 17 12 13 18 20 23 25 27 28 29 30 32 32 32 32 34 35 34 34 33 30 28 27 27 27 26 25 24 23 22 22 22 23 24 23 21 20 21 22 23 23 23 23 24 24 24 24 24 23 23 23 23 22 22 25 27 27 27 27 29 29 30 30 31 31 32 32 33 33
19 20 20 21 22 22 22 21 20 19 18 16 16 17 18 18 18 14 12 16 20 23 26 28 29 30 31 33 34 33 33 35 36 36 36 35 31 29 30 30 29 27 26 25 24 23 23 23 23 23 23 22 22 22 23 23 24 24 24 25 25 25 25 25 25 24 24 24 23 23 24 26 27 27 27 28 30 31 32 33 33 32 31 31 31
21 21 23 24 24 24 24 23 22 21 20 18 17 17 18 18 18 16 11 15 21 25 26 28 31 31 31 32 35 35 35 36 37 37 37 37 34 31 32 32 30 28 27 26 25 24 24 24 24 23 24 24 23 23 22 22 23 24 25 25 26 27 27 27 27 26 25 25 24 24 24 25 26 26 27 27 27 27 28 28 29 29 28 28 29
20 21 22 23 24 24 24 24 23 22 21 20 19 18 18 18 18 18 15 11 18 26 28 27 29 34 36 36 36 37 38 38 38 37 38 39 38 35 34 34 32 31 29 28 28 27 26 25 25 24 24 24 24 23 23 23 24 24 25 25 26 27 27 28 27 26 25 24 23 23 24 26 28 28 29 29 28 28 28 27 28 28 29 29 29
16 18 19 20 20 21 22 23 23 22 21 20 20 20 20 20 20 19 19 16 13 17 23 25 26 29 35 38 37 38 39 40 40 39 39 39 39 38 37 36 34 33 32 31 31 30 29 27 26 25 25 25 24 24 25 25 25 25 26 26 26 27 27 27 26 23 22 23 22 22 24 26 28 29 29 29 29 29 29 28 28 28 28 29 29
15 15 16 17 17 18 19 20 21 23 22 20 20 19 19 20 21 21 20 19 18 15 15 17 20 22 27 32 36 38 39 39 40 42 40 39 39 39 38 37 36 35 34 33 33 33 31 30 28 27 27 26 25 26 26 26 26 27 27 27 27 26 26 26 25 24 25 26 26 25 25 26 26 27 27 28 28 28 28 28 28 28 28 28 29
15 15 15 16 16 16 16 17 18 19 21 21 20 19 18 18 19 21 21 20 19 18 17 15 15 16 20 23 28 35 39 40 42 44 42 40 40 40 39 38 37 36 35 34 33 33 32 29 28 28 27 27 27 27 28 28 29 29 29 29 29 28 26 25 25 25 25 25 25 25 25 25 25 25 25 26 26 26 26 27 28 28 28 29 29
16 16 16 16 16 16 16 16 16 16 17 18 18 18 18 18 18 18 19 20 19 18 17 17 16 14 14 17 19 25 31 34 37 41 41 39 40 41 40 40 38 37 36 34 32 31 31 30 29 28 28 27 27 28 29 29 29 30 30 30 30 28 26 26 26 26 26 26 26 26 26 26 25 24 24 25 25 25 25 26 27 28 28 29 28
18 17 17 16 16 16 16 16 16 15 15 16 16 16 17 17 17 17 17 17 17 16 15 14 15 14 13 13 14 17 21 23 26 33 37 39 39 39 39 39 39 38 36 35 34 33 31 30 29 28 28 28 28 28 29 29 29 30 30 30 29 28 28 29 30 28 27 28 28 28 28 27 26 25 24 24 24 24 24 25 25 25 24 24 23
19 19 18 17 17 17 17 17 17 16 16 16 16 16 16 16 15 15 15 15 15 15 14 12 11 12 11 12 13 14 17 18 19 24 30 35 39 40 39 39 39 38 35 33 33 31 30 30 31 31 31 31 30 30 30 30 30 31 30 28 27 27 28 30 31 30 29 29 30 31 31 29 28 26 25 24 24 23 22 22 21 21 21 21 21
21 20 20 19 18 18 18 18 17 17 17 17 16 16 15 15 15 14 13 14 13 13 13 12 11 10 9 9 12 13 15 17 17 18 20 23 29 34 34 34 34 35 33 32 31 31 32 33 35 36 35 34 33 32 31 30 30 31 29 26 25 26 27 28 29 28 29 29 30 30 30 28 27 26 24 23 22 20 19 19 19 19 19 19 20
21 21 21 20 20 19 18 18 18 17 17 17 17 17 16 15 15 14 14 13 12 12 12 12 11 11 10 9 8 10 12 15 17 18 18 18 19 21 23 23 24 26 27 27 27 28 31 33 35 35 35 33 32 32 30 30 31 30 26 23 22 23 24 25 26 27 27 26 25 24 22 21 19 17 16 16 15 15 16 16 16 17 18 18 19
21 21 21 21 20 20 19 18 18 17 17 17 17 18 17 16 15 14 14 13 13 12 11 10 10 10 10 10 9 8 7 8 11 14 17 19 20 21 21 21 21 22 23 23 23 25 26 28 30 30 31 31 31 31 31 30 31 29 26 23 22 21 20 20 21 23 24 22 19 16 14 13 12 11 11 12 12 13 14 15 16 17 17 18 19
22 22 22 21 21 20 20 19 18 17 17 17 17 17 17 17 16 15 15 14 13 12 11 10 10 9 9 9 8 8 7 6 6 7 8 11 13 16 18 20 21 23 25 26 26 26 26 27 27 27 28 30 31 31 29 27 26 25 22 20 18 17 16 14 14 15 15 13 11 10 9 9 9 9 10 11 12 13 14 15 16 17 18 19 20
23 23 23 23 22 20 20 19 19 18 18 17 17 17 17 16 16 15 15 14 14 13 12 11 10 9 8 8 7 7 6 6 5 5 4 4 5 6 9 11 15 18 20 23 24 25 25 25 25 25 25 25 24 23 22 20 18 17 15 13 11 10 9 8 8 7 7 7 6 6 7 7 7 8 10 11 13 14 15 16 17 17 18 19 20
22 23 23 23 21 20 20 19 19 19 19 18 18 18 17 16 16 15 15 15 14 13 13 12 10 9 8 7 7 6 6 5 5 4 4 3 2 2 2 3 5 7 9 12 14 16 17 18 18 19 19 18 17 17 16 14 13 11 9 8 6 4 3 3 3 4 4 5 5 6 7 8 9 10 12 13 14 15 15 16 16 17 18 19 21
23 23 23 22 21 20 19 19 19 19 19 19 19 18 18 18 17 16 15 15 14 13 13 12 11 10 9 7 6 5 5 5 5 5 5 4 4 3 2 1 1 2 3 4 6 8 9 9 10 11 11 11 11 10 9 8 6 4 3 1 1 2 3 4 5 6 6 7 8 8 9 10 11 12 13 14 14 15 15 16 17 18 19 20 21
24 23 23 22 21 20 20 19 19 19 19 19 19 19 19 19 19 19 18 16 15 14 13 12 12 11 9 8 7 6 5 4 4 4 4 5 5 5 4 3 2 1 1 0 1 1 2 2 3 3 4 4 4 3 3 3 2 2 1 1 2 4 5 6 7 7 8 8 9 10 11 11 12 12 13 13 14 15 16 17 17 18 19 19 20
23 23 23 22 21 21 21 20 19 19 19 19 19 20 20 20 20 20 20 19 18 17 16 14 13 11 10 10 9 8 7 6 5 4 3 3 3 3 3 3 3 2 2 2 2 3 3 3 4 4 4 4 4 4 4 3 1 0 2 4 5 6 7 8 9 9 10 10 11 11 12 12 12 12 13 13 14 15 16 16 17 18 18 18 19
22 22 22 21 20 20 20 20 19 19 18 19 19 20 21 21 21 20 20 20 19 19 18 17 15 13 12 10 9 8 8 7 6 5 4 3 3 3 2 2 1 1 1 2 2 2 3 3 3 3 3 3 3 2 1 1 3 4 6 7 8 9 9 10 10 11 11 11 11 11 11 12 12 12 13 13 14 15 15 16 16 17 17 18 19
20 20 20 20 19 19 19 19 19 19 19 19 20 20 20 21 21 21 21 20 20 19 19 19 17 15 13 12 10 9 8 7 6 5 5 5 5 4 4 3 3 2 1 1 0 0 0 0 0 0 1 1 2 3 4 5 6 7 8 9 9 10 10 10 10 11 11 11 10 11 11 11 11 12 12 13 13 14 14 15 16 17 18 19 20
19 18 18 18 17 17 18 18 19 19 19 19 19 19 20 20 20 21 21 21 20 20 19 19 18 16 14 12 11 10 8 6 5 5 6 7 7 6 5 5 4 4 4 3 3 3 3 3 4 4 4 5 5 6 7 7 8 9 10 10 10 11 11 10 10 10 9 9 9 10 10 10 11 11 12 12 13 13 14 16 17 18 18 19 20
19 18 17 16 16 16 17 18 19 19 19 19 18 18 18 19 20 20 20 20 21 21 20 20 19 18 16 14 12 11 9 7 6 5 5 6 7 7 7 6 6 6 6 5 5 5 6 6 6 7 7 7 8 8 8 9 10 10 11 11 11 10 10 9 9 8 9 9 9 9 10 10 11 11 11 12 13 14 15 16 16 17 18 18 18
19 20 18 17 16 16 16 17 18 19 20 20 19 18 18 18 19 19 20 20 20 21 21 21 20 19 17 16 14 12 11 9 7 6 5 4 5 7 7 6 6 6 6 6 7 7 7 8 8 8 8 8 9 9 9 10 11 11 11 10 10 9 8 8 8 8 8 9 9 9 10 10 10 11 11 12 13 14 14 14 15 15 15 15 15
18 19 19 18 18 17 17 17 18 19 20 21 21 20 19 18 17 18 19 19 19 20 20 21 20 19 18 16 15 13 11 10 8 7 5 3 3 5 6 6 6 7 7 7 7 8 8 8 8 8 9 9 9 10 10 11 10 10 9 9 8 8 7 8 8 8 8 9 9 9 9 9 10 10 11 11 12 12 12 12 12 12 12 12 12
17 18 19 19 18 18 17 17 17 18 19 20 22 22 22 20 19 18 18 18 18 18 19 20 20 19 17 16 15 13 11 10 9 7 6 4 3 4 5 5 6 6 7 7 7 8 8 8 9 9 9 10 10 10 10 10 9 9 8 7 7 7 8 8 8 8 8 8 7 7 7 7 8 9 9 10 10 10 10 10 10 10 10 10 10
16 17 18 19 19 19 18 17 17 18 19 20 21 21 21 21 21 19 18 17 17 17 18 19 19 18 16 16 15 14 11 9 8 8 7 6 5 5 5 5 6 6 7 7 7 8 8 9 9 10 10 10 10 10 9 9 8 7 7 7 7 7 7 7 7 7 7 6 6 5 5 6 7 7 7 8 8 8 8 8 8 8 9 9 9
16 17 18 19 19 19 18 17 17 17 18 18 19 19 19 19 19 19 18 17 16 17 18 18 18 17 15 15 15 15 13 10 8 7 7 7 6 5 5 6 6 6 7 7 7 8 8 9 10 10 10 10 10 9 8 8 7 7 7 7 7 7 7 6 6 6 5 4 4 4 4 5 5 6 6 6 6 6 6 6 6 7 7 8 8
18 18 18 19 19 19 19 18 18 17 17 17 18 18 18 18 18 17 18 18 17 17 17 17 17 16 14 14 14 15 15 13 9 6 6 6 6 6 6 6 6 6 7 7 7 8 9 9 9 9 9 9 9 8 8 7 7 6 7 7 6 6 5 5 5 4 4 3 3 3 3 4 4 5 5 5 5 5 5 5 6 6 7 7 7
20 20 19 19 18 19 19 19 18 17 17 17 17 17 17 17 17 17 17 18 19 18 17 16 15 15 14 13 13 14 14 14 12 9 6 6 6 6 5 5 6 6 6 7 7 8 8 8 8 8 8 8 8 7 7 7 7 7 7 6 5 5 5 4 4 4 3 2 2 2 2 2 3 3 4 4 4 5 5 5 6 7 7 7 6
21 20 19 18 18 18 18 18 18 18 17 17 17 17 17 17 17 17 18 18 19 19 18 16 15 15 15 14 13 13 13 13 12 11 9 8 6 5 5 6 6 6 6 6 6 7 7 8 8 8 8 8 7 7 7 7 7 7 6 6 5 5 5 5 4 3 2 1 1 1 1 2 2 3 3 3 4 5 5 5 6 7 7 7 7
20 19 18 17 17 16 16 17 17 17 17 18 18 17 17 17 17 17 18 18 18 17 15 14 14 15 15 15 14 15 14 13 11 10 10 9 8 7 6 6 5 5 5 5 5 5 6 7 7 8 8 8 8 8 8 8 7 7 6 6 6 6 6 5 4 3 2 2 2 2 2 3 2 2 2 3 4 4 4 5 6 6 6 7 7
18 17 16 16 16 15 15 16 16 17 17 17 17 18 18 17 16 15 16 18 18 16 14 13 13 14 14 14 15 15 15 14 12 11 10 9 8 7 7 6 6 5 4 4 4 5 6 6 7 7 8 8 8 8 8 7 7 7 7 7 7 7 6 5 4 3 3 3 3 3 3 2 2 2 2 3 4 4 4 4 5 5 6 6 6
16 15 15 15 15 15 15 15 16 16 17 17 17 17 18 18 16 15 15 17 18 17 15 13 13 14 14 14 15 15 14 13 12 11 10 10 9 8 7 7 6 5 4 4 5 5 6 7 7 7 8 8 8 8 8 7 7 7 7 7 7 6 5 5 5 4 4 3 3 3 3 2 1 2 2 3 4 4 4 4 5 5 5 5 5
Wind_Direction
298 300 300 299 298 295 294 293 296 304 310 312 312 299 280 271 263 263 269 278 283 282 279 271 258 242 233 228 225 218 212 212 217 220 220 219 220 221 218 215 215 214 214 215 216 219 223 224 218 216 219 221 224 229 230 229 228 227 226 225 224 224 226 228 229 234 239 238 239 243 245 246 252 255 253 246 238 233 231 228 222 218 216 216 218
301 303 305 306 307 305 303 301 298 299 304 310 309 295 280 278 274 273 278 282 283 281 280 274 258 238 229 223 219 218 214 214 220 223 221 218 219 221 217 214 216 218 219 218 218 221 221 220 218 218 222 223 224 228 228 228 228 230 231 229 227 228 229 230 232 236 240 239 239 242 245 248 252 254 254 249 238 231 228 225 222 220 220 220 221
306 308 309 309 310 310 307 305 302 297 296 299 298 287 276 272 272 274 276 279 282 282 280 271 257 242 232 222 217 217 217 218 222 225 224 220 219 220 218 216 216 218 221 221 222 222 219 217 217 219 223 225 226 228 229 227 227 230 232 231 230 230 229 231 233 237 239 239 238 240 242 247 252 254 255 253 244 234 229 227 225 224 224 223 224
313 314 315 315 316 316 312 308 303 298 294 291 286 280 276 274 273 272 269 269 273 276 276 270 259 248 237 225 220 220 221 221 222 224 224 221 220 221 221 218 215 216 220 221 222 222 219 219 220 221 225 227 229 232 233 232 230 231 232 233 232 232 231 231 233 236 238 238 238 239 240 243 249 252 255 256 249 237 232 230 228 228 227 225 226
314 316 318 319 320 321 320 316 309 301 294 288 282 276 275 276 277 275 270 267 266 268 272 271 265 256 244 231 224 225 225 221 219 221 223 221 219 219 220 218 213 213 217 220 222 221 220 222 223 224 226 228 230 233 232 231 231 232 231 232 233 233 233 233 233 235 237 237 237 239 239 242 247 252 255 256 249 239 235 234 232 231 231 229 229
310 312 314 316 318 320 322 321 316 309 300 291 284 278 274 271 273 275 272 269 268 269 269 268 264 257 248 238 231 227 224 219 216 217 219 220 220 220 222 221 216 214 216 218 221 222 221 223 225 226 227 229 230 230 227 226 230 232 230 231 233 233 234 234 234 235 236 236 237 238 239 240 245 252 256 257 251 242 238 239 238 236 236 234 233
304 307 309 311 314 316 318 319 318 314 308 299 289 281 275 270 267 268 270 269 270 272 269 264 260 255 249 244 237 226 220 219 218 218 219 219 220 223 225 224 222 220 217 217 220 222 223 224 226 228 229 231 230 228 225 225 228 229 228 229 232 233 234 235 235 235 236 237 238 236 234 235 239 247 254 258 256 250 247 248 246 241 239 238 237
300 302 304 307 310 311 313 315 316 314 311 305 295 284 276 271 268 266 268 269 271 273 269 263 260 254 247 243 237 225 219 219 218 219 221 220 219 223 226 225 224 222 221 220 221 223 225 227 229 230 231 232 230 229 228 227 228 228 227 229 233 234 235 236 236 236 236 236 236 233 229 230 233 238 246 256 261 260 255 248 244 239 236 234 234
299 300 301 304 306 308 309 311 312 313 311 307 301 290 279 272 268 267 265 264 267 270 270 267 262 253 243 237 231 224 220 219 216 216 219 221 221 225 227 227 226 225 227 228 227 227 227 227 229 231 231 232 231 230 232 233 233 233 232 232 234 237 238 238 237 238 240 241 240 235 227 227 229 232 240 252 257 252 244 238 238 238 236 232 231
300 301 301 302 304 306 307 309 311 311 310 307 303 296 285 274 267 264 262 260 262 265 270 270 262 252 241 233 230 226 221 219 216 214 215 218 223 228 229 229 229 228 227 228 229 230 229 227 228 229 230 231 231 231 233 234 235 236 235 234 236 238 241 242 242 243 246 247 247 242 231 226 227 230 235 242 244 242 240 240 240 239 236 233 232
304 305 305 305 305 306 308 310 311 311 310 308 304 298 290 281 271 263 260 259 261 262 266 268 260 250 239 230 229 228 223 219 217 214 213 217 223 229 232 229 227 226 224 224 226 229 230 229 229 229 230 232 234 235 236 236 237 238 238 238 238 239 243 246 245 246 247 246 246 246 239 230 228 229 231 235 240 244 245 243 241 240 239 238 238
308 310 311 310 310 309 309 310 312 313 312 310 306 299 292 286 280 270 261 257 256 258 260 263 259 250 240 229 229 230 223 218 217 214 213 219 225 230 232 230 226 224 223 222 224 226 228 229 228 228 230 232 234 236 237 238 239 239 239 240 239 239 242 245 244 243 245 244 243 244 240 232 228 228 229 233 238 243 247 247 246 245 246 245 246
311 313 315 316 315 314 314 314 313 314 314 312 308 302 294 287 284 278 267 256 251 250 252 255 255 250 241 232 233 234 226 222 222 218 215 220 227 230 231 230 228 226 223 222 223 224 226 229 228 227 228 230 232 233 235 238 238 237 237 237 237 237 239 241 242 242 242 242 243 243 240 234 228 225 226 229 234 239 245 251 252 253 254 253 253
315 316 318 320 320 320 319 319 318 316 315 313 309 304 298 292 283 277 269 257 250 245 244 247 250 247 241 234 233 236 231 228 227 222 217 220 225 229 231 230 229 227 225 224 223 223 225 228 229 228 227 229 231 232 233 234 235 236 237 237 238 239 239 241 243 243 242 242 242 240 240 237 230 224 226 229 232 238 245 251 255 257 257 256 255
320 322 323 322 321 320 319 320 321 319 315 312 309 304 301 299 288 273 264 256 250 245 241 242 241 239 236 232 230 231 231 228 224 219 218 222 226 228 229 230 231 229 226 226 225 225 225 227 230 231 230 231 230 230 231 232 234 237 238 239 241 242 243 245 246 246 244 245 245 242 244 242 231 224 229 233 236 242 247 250 253 255 255 255 255
323 325 327 326 323 321 320 322 324 322 317 314 313 309 306 306 296 273 258 250 246 245 243 241 238 237 236 232 226 225 225 221 217 217 221 226 228 228 228 229 230 228 225 224 224 225 226 228 230 230 230 231 231 230 232 233 235 238 239 241 243 245 247 248 248 247 246 248 248 244 244 243 230 225 231 237 239 244 249 250 253 255 255 256 256
322 325 329 330 328 326 326 328 331 330 323 318 319 320 318 318 313 282 255 245 242 243 244 242 237 237 239 235 228 224 223 219 215 217 224 228 228 227 227 229 229 227 224 224 223 224 227 229 230 229 229 231 232 232 234 237 238 240 242 243 245 247 248 248 248 248 248 250 251 246 241 238 232 231 236 240 242 245 248 249 252 254 256 257 257
327 327 330 333 334 334 333 334 337 339 336 327 322 325 328 331 330 308 260 243 239 241 243 245 240 236 238 237 231 227 226 223 220 220 224 226 227 226 227 229 229 227 224 223 222 223 225 228 230 230 231 235 236 234 236 239 241 243 245 246 246 248 249 249 248 248 248 248 249 245 238 235 235 238 241 243 244 246 247 249 251 252 253 254 256
334 333 335 337 338 340 339 337 338 341 345 341 332 330 334 339 342 327 276 243 237 237 238 241 241 239 238 236 232 228 226 224 223 224 224 224 224 225 227 229 228 226 225 223 222 222 223 225 227 228 229 233 236 236 237 240 242 244 246 247 248 248 249 250 250 251 251 251 250 245 238 235 238 241 244 246 247 246 247 249 250 251 253 254 256
338 339 340 340 339 340 340 341 342 342 344 346 345 341 339 342 349 345 306 253 241 244 245 242 238 238 238 236 231 227 225 223 223 225 225 224 222 222 226 229 228 226 224 222 222 222 221 222 224 226 227 228 230 234 237 241 245 248 248 248 248 249 250 252 253 253 253 253 252 247 241 239 241 244 247 249 249 248 249 251 253 256 259 261 263
338 339 341 341 340 341 341 342 344 345 345 346 348 347 344 342 347 352 344 297 255 253 258 258 247 236 232 232 231 227 225 225 225 226 227 226 222 221 224 226 226 225 224 222 222 223 222 223 224 225 227 229 230 232 234 236 240 246 249 249 249 250 251 252 254 256 257 256 253 250 246 244 244 246 248 250 252 254 257 259 260 261 263 266 269
341 339 339 340 341 343 343 343 343 346 349 351 350 349 348 345 344 346 349 346 315 277 270 272 267 247 231 226 227 228 227 227 227 227 228 226 222 220 223 225 224 224 223 223 224 225 224 224 225 227 229 231 231 231 233 235 238 243 247 250 252 253 254 254 254 252 253 252 248 244 245 246 245 246 248 251 254 256 259 261 262 263 265 268 270
351 347 343 341 341 344 346 346 345 345 348 353 354 353 351 349 347 343 341 344 346 333 308 294 287 270 246 232 227 227 228 228 228 228 227 224 223 222 222 223 224 224 225 225 226 226 226 224 225 227 228 230 231 233 236 239 242 246 249 251 252 252 253 254 251 244 243 246 245 242 243 246 247 249 250 252 255 257 260 262 264 266 268 270 274
355 352 348 345 342 342 346 349 349 347 347 351 353 354 354 353 351 348 344 342 343 343 340 331 317 293 272 256 240 230 225 223 225 228 227 221 220 221 220 221 223 224 225 224 223 224 226 226 226 228 230 231 233 236 240 243 245 248 249 250 251 252 251 250 246 241 240 243 244 244 246 248 250 252 254 256 259 261 262 264 267 270 273 276 280
355 351 348 346 342 341 342 345 345 345 347 349 350 351 353 354 353 351 352 351 347 341 337 335 332 320 299 287 270 247 231 219 216 223 227 222 219 221 222 222 224 226 228 227 225 226 229 229 229 231 233 235 237 240 242 242 243 244 247 248 249 247 242 240 240 239 237 237 239 242 246 248 251 255 259 261 262 263 265 268 272 275 277 279 281
356 352 349 346 344 342 340 339 340 341 343 345 346 349 350 352 353 353 354 355 353 348 340 329 322 318 308 295 284 266 249 230 215 216 222 222 221 222 224 224 225 225 225 227 229 231 230 228 228 232 234 237 239 238 235 235 238 240 240 237 232 226 225 230 235 236 236 237 240 244 248 251 256 259 261 263 265 268 271 275 276 277 278 280 283
360 357 353 349 346 344 342 340 340 340 341 341 343 346 347 348 350 352 352 352 353 352 350 340 323 313 304 291 278 264 254 247 231 218 217 217 218 221 227 228 226 223 220 220 222 222 219 218 223 229 231 232 232 230 229 233 235 230 224 220 218 218 221 227 232 234 237 241 246 250 252 255 257 258 260 265 269 271 274 276 278 280 283 286 288
3 1 358 354 350 346 344 344 343 341 340 340 340 341 343 343 345 347 348 350 350 350 351 350 342 330 317 297 279 263 250 246 241 229 220 213 210 213 218 221 220 218 214 210 206 204 206 211 218 224 226 226 226 226 229 232 229 224 221 222 224 226 228 231 234 237 240 245 249 251 252 252 253 254 259 264 268 271 273 277 282 285 287 287 287
3 2 360 358 356 352 348 346 346 345 342 340 339 339 341 342 343 345 346 347 348 348 347 348 347 343 339 329 308 282 261 250 245 241 236 230 224 220 219 217 215 213 211 209 207 209 212 216 220 222 223 223 222 223 226 229 230 231 232 232 231 231 233 236 238 241 246 250 251 250 249 249 250 254 260 267 272 276 277 279 281 281 281 282 284
3 1 359 358 358 357 354 351 349 348 347 345 343 342 343 343 342 342 343 344 346 348 346 344 344 342 339 338 335 324 302 275 258 249 242 239 239 239 239 238 236 232 230 231 233 232 228 225 225 226 227 228 229 230 232 234 235 237 238 239 241 242 241 240 242 246 251 255 255 252 251 252 254 258 263 268 272 274 274 274 275 276 278 280 284
3 360 359 360 360 358 357 356 354 351 350 350 350 349 348 347 345 342 341 341 343 346 346 344 342 339 336 334 333 333 331 320 299 279 263 251 245 243 241 239 238 238 238 239 241 241 238 235 233 233 234 234 235 235 236 235 236 237 240 243 245 244 242 242 244 247 250 252 253 254 257 260 263 265 267 269 270 271 272 273 274 275 277 281 285
4 1 0 1 2 0 357 357 358 358 356 354 353 354 354 353 350 345 341 338 338 341 344 345 344 340 336 332 327 325 326 326 321 314 304 292 279 264 252 244 240 238 237 237 237 237 237 236 234 231 230 229 228 228 227 226 228 230 231 232 233 233 235 240 244 248 255 260 265 271 273 275 275 273 272 271 269 267 267 269 271 275 280 285 289
8 6 4 4 4 2 359 359 1 2 3 1 358 357 357 356 354 351 347 343 339 337 338 341 343 342 339 333 328 324 319 314 313 313 311 311 310 292 261 239 228 223 222 223 223 222 222 222 220 218 217 215 214 214 213 213 214 215 216 220 227 237 256 274 286 295 299 294 288 285 279 275 271 268 265 264 263 264 267 271 276 282 286 289 291
13 12 11 9 6 3 3 4 5 6 7 7 5 3 1 1 0 359 355 351 345 341 337 334 334 335 335 333 329 323 318 311 306 302 301 304 307 307 302 278 216 192 184 186 192 197 200 201 201 200 201 201 200 201 201 200 199 199 201 215 324 336 325 314 305 298 289 279 272 267 262 259 257 257 258 261 265 270 276 281 285 288 290 292 293
15 16 15 13 10 6 6 8 10 10 10 10 10 9 7 5 4 3 0 357 352 348 342 337 332 329 327 324 320 314 310 305 298 294 295 298 303 307 312 316 318 317 319 118 139 144 148 149 152 158 161 159 156 150 140 125 107 88 59 348 304 289 283 277 272 268 262 257 254 251 251 254 256 259 264 269 274 279 283 287 290 292 294 295 295
14 16 16 15 12 9 9 10 11 12 12 12 12 12 9 7 6 5 4 3 359 354 348 343 338 332 327 323 317 310 304 296 290 288 286 282 285 291 298 307 320 339 358 13 28 43 58 69 78 83 88 91 92 92 92 89 85 259 257 256 255 255 256 254 252 251 248 246 247 250 252 256 261 265 271 276 280 285 289 291 294 295 295 296 297
12 13 14 14 13 9 7 7 7 9 10 10 10 9 7 6 5 4 4 4 4 0 355 349 344 340 335 330 324 315 304 293 284 279 271 257 242 228 228 236 254 319 18 27 33 40 49 62 72 78 81 84 87 94 118 193 230 239 242 243 243 243 242 241 239 238 240 242 246 250 255 262 268 274 279 284 287 291 293 294 295 296 298 301 304
11 11 11 12 11 8 4 2 3 4 5 4 4 3 1 359 359 359 359 0 2 3 360 355 349 345 341 337 333 327 318 303 285 270 257 248 239 228 219 214 210 210 214 217 230 274 273 251 230 162 169 182 194 207 218 224 229 232 234 234 234 232 231 231 232 235 239 245 251 259 267 273 279 282 286 289 291 293 295 298 301 304 307 310 310
9 9 9 9 8 5 3 0 359 360 359 359 359 359 357 354 352 352 353 354 356 358 360 359 355 351 347 343 338 335 331 324 308 285 262 247 238 232 231 231 233 237 238 234 229 224 219 218 218 218 220 220 219 220 222 222 224 225 224 225 225 225 225 228 232 238 246 254 263 270 275 279 283 286 289 292 295 299 303 307 310 311 311 310 309
4 6 7 5 2 359 358 355 353 352 351 352 354 355 352 349 347 346 347 349 351 353 355 357 356 354 352 349 345 342 338 333 325 312 288 259 239 230 231 235 239 242 240 235 230 223 218 215 213 214 216 217 218 219 219 217 217 217 218 219 221 222 225 231 238 247 256 263 269 274 279 283 287 290 294 299 304 308 310 312 312 310 308 306 304
359 360 1 1 357 353 351 349 347 344 343 342 344 346 345 342 341 341 342 344 346 348 350 351 352 353 352 351 349 348 344 337 329 322 311 277 238 226 226 229 228 226 225 225 224 221 218 217 217 217 217 218 216 215 213 212 213 214 216 219 222 226 233 240 247 254 261 268 273 278 283 287 291 297 303 309 311 313 313 312 310 308 306 304 304
354 354 355 355 353 350 349 346 343 340 338 338 339 341 342 340 337 335 335 337 340 343 344 345 347 348 348 348 348 349 346 340 331 322 315 300 255 231 225 223 220 216 213 216 219 220 219 220 220 219 218 216 213 211 210 211 213 215 219 224 230 236 243 249 255 261 267 273 278 282 287 294 301 308 312 314 314 313 313 312 311 310 310 310 312
352 351 350 349 348 348 347 346 343 341 339 337 338 340 341 341 338 335 332 332 334 337 338 340 341 342 341 341 344 347 345 339 329 317 307 294 271 247 232 223 221 217 214 214 216 217 219 220 219 217 215 212 210 211 212 214 217 220 225 231 237 245 252 258 263 269 274 278 283 289 297 305 312 316 316 317 317 317 318 319 320 320 321 321 325
351 350 347 344 344 344 346 346 346 344 342 341 341 340 340 340 339 338 336 333 333 335 336 338 339 340 338 336 337 340 342 338 326 310 296 280 265 253 244 236 229 223 219 218 216 216 217 217 216 214 211 210 210 211 214 218 222 226 232 240 248 255 262 267 271 275 279 282 288 299 309 315 317 318 319 322 324 325 326 329 330 330 329 331 336
349 348 345 341 340 341 343 345 346 346 346 345 345 345 344 343 342 340 339 338 336 336 338 339 340 341 340 337 335 335 336 337 329 309 291 278 264 252 245 242 238 232 224 219 215 213 212 213 213 212 209 209 211 214 217 223 228 234 244 253 259 263 266 270 271 272 274 279 292 308 319 321 322 324 328 332 335 334 333 336 338 337 337 339 343
345 343 341 338 336 337 340 342 344 345 346 347 349 351 352 351 348 345 344 343 342 341 342 343 343 343 343 344 342 337 334 335 333 317 291 275 266 257 247 240 238 237 232 226 218 211 208 207 208 210 211 213 217 221 225 230 239 250 258 262 262 262 260 258 258 259 264 279 304 319 327 329 329 329 331 334 334 334 333 334 336 337 339 343 346
339 337 335 333 333 334 336 339 342 343 343 345 349 352 354 354 352 348 345 344 343 343 343 346 347 346 347 350 352 346 339 335 332 322 303 282 270 264 257 245 234 229 229 227 222 215 210 208 207 209 215 220 225 231 238 247 255 261 262 259 254 250 246 243 242 245 255 282 311 325 331 327 317 315 316 317 318 322 328 330 331 333 337 341 343
332 332 330 330 331 332 334 337 339 341 341 342 345 349 352 353 352 348 344 340 338 339 341 345 349 348 348 352 356 354 348 340 333 325 315 307 297 285 274 262 247 233 226 224 224 222 218 215 213 215 219 226 232 240 249 257 259 257 252 245 239 234 233 232 232 235 242 256 271 271 267 268 275 284 295 306 318 331 337 335 333 334 338 341 342
329 329 328 328 329 330 331 333 335 337 338 339 340 343 347 349 350 348 345 341 339 341 346 350 350 349 347 349 353 356 354 348 340 330 322 318 314 304 291 280 270 259 243 231 227 229 227 223 222 223 225 231 239 247 252 253 249 242 235 230 227 226 225 223 219 214 208 196 190 203 226 241 261 287 308 322 337 348 350 342 338 339 342 343 345
330 329 328 329 329 329 330 330 331 333 334 335 335 337 339 342 344 345 343 341 343 348 354 356 352 348 346 345 349 353 353 351 346 340 331 324 316 303 291 284 280 277 268 250 234 233 233 231 230 232 237 243 248 250 247 240 232 227 225 224 221 219 217 208 193 182 181 183 195 215 233 247 275 310 324 334 344 352 352 344 339 338 341 343 346
328 327 327 328 330 331 331 331 330 330 331 332 333 333 334 335 336 337 337 338 340 345 351 352 348 345 345 347 349 351 351 349 348 346 340 333 324 312 299 287 277 270 270 265 252 243 241 242 243 248 254 256 254 248 240 230 224 222 222 220 216 210 199 181 170 173 185 198 209 225 238 258 292 315 322 329 335 341 344 339 335 337 342 344 344
Height
3116 3115 3114 3113 3113 3112 3111 3110 3110 3109 3108 3106 3105 3104 3105 3106 3107 3108 3108 3109 3108 3109 3109 3108 3107 3107 3107 3108 3109 3110 3112 3114 3116 3118 3119 3120 3122 3125 3127 3130 3130 3130 3132 3135 3137 3139 3141 3143 3145 3146 3147 3148 3150 3151 3153 3154 3155 3156 3158 3159 3160 3161 3161 3162 3162 3163 3163 3164 3164 3165 3165 3166 3166 3167 3167 3167 3168 3168 3169 3170 3170 3171 3172 3172 3173
3114 3113 3113 3112 3111 3110 3109 3109 3108 3107 3107 3106 3105 3105 3105 3106 3106 3106 3106 3106 3106 3105 3106 3106 3106 3106 3105 3106 3107 3108 3111 3112 3114 3115 3117 3119 3120 3123 3125 3126 3127 3127 3129 3133 3135 3135 3138 3141 3142 3143 3144 3146 3147 3149 3150 3151 3153 3154 3155 3157 3158 3159 3159 3160 3160 3161 3161 3162 3162 3163 3163 3164 3164 3165 3165 3165 3166 3166 3167 3168 3169 3169 3170 3171 3171
3112 3112 3111 3110 3109 3108 3107 3106 3106 3105 3105 3104 3104 3104 3104 3104 3103 3103 3103 3104 3104 3103 3103 3103 3104 3104 3104 3104 3105 3106 3108 3110 3111 3112 3115 3117 3118 3120 3122 3122 3124 3125 3128 3130 3131 3132 3135 3138 3139 3140 3142 3143 3144 3146 3147 3148 3150 3151 3153 3154 3155 3156 3157 3158 3158 3159 3159 3160 3160 3161 3161 3162 3162 3162 3163 3164 3164 3165 3165 3166 3167 3167 3168 3169 3170
3110 3109 3109 3108 3107 3106 3105 3104 3103 3103 3102 3102 3102 3102 3101 3101 3101 3100 3101 3101 3101 3100 3101 3101 3102 3102 3102 3102 3103 3104 3106 3108 3109 3111 3113 3114 3116 3117 3118 3119 3121 3123 3125 3127 3129 3130 3133 3135 3136 3137 3139 3140 3142 3143 3145 3147 3148 3149 3150 3151 3153 3154 3155 3155 3156 3156 3157 3157 3158 3159 3159 3159 3160 3160 3161 3162 3162 3163 3163 3164 3165 3166 3166 3167 3168
3108 3107 3107 3106 3105 3104 3103 3102 3101 3100 3100 3099 3099 3099 3098 3098 3097 3097 3098 3098 3098 3098 3098 3099 3099 3100 3100 3101 3101 3102 3103 3105 3106 3108 3110 3112 3113 3114 3115 3117 3120 3121 3123 3125 3127 3128 3130 3132 3133 3134 3136 3137 3139 3141 3143 3144 3145 3146 3147 3148 3150 3151 3152 3153 3154 3154 3154 3155 3156 3157 3157 3157 3158 3158 3159 3160 3161 3161 3162 3162 3163 3164 3165 3165 3166
3106 3106 3105 3104 3103 3103 3102 3100 3099 3098 3097 3097 3096 3096 3096 3095 3094 3094 3095 3095 3095 3095 3095 3096 3097 3097 3097 3099 3099 3099 3100 3102 3104 3105 3107 3108 3110 3111 3113 3115 3117 3118 3120 3122 3124 3126 3127 3129 3130 3131 3133 3135 3136 3138 3140 3141 3142 3143 3144 3146 3147 3148 3150 3150 3151 3152 3152 3153 3153 3154 3155 3155 3156 3157 3157 3158 3159 3159 3160 3160 3161 3162 3163 3163 3164
3105 3104 3103 3102 3101 3101 3100 3099 3098 3096 3095 3094 3093 3093 3093 3093 3092 3092 3092 3092 3093 3093 3092 3093 3093 3094 3094 3095 3097 3097 3098 3100 3101 3103 3104 3105 3107 3109 3111 3113 3114 3116 3117 3119 3121 3122 3124 3125 3126 3128 3131 3133 3134 3136 3137 3138 3139 3140 3141 3143 3144 3145 3147 3148 3149 3149 3150 3151 3151 3151 3152 3153 3154 3155 3156 3156 3157 3158 3158 3159 3159 3160 3161 3161 3162
3103 3102 3101 3100 3099 3099 3098 3097 3096 3094 3093 3092 3091 3090 3090 3090 3090 3090 3090 3090 3090 3090 3090 3090 3090 3091 3091 3092 3094 3095 3096 3097 3099 3101 3102 3103 3105 3107 3109 3111 3112 3114 3115 3116 3118 3119 3121 3123 3124 3125 3128 3130 3131 3133 3134 3135 3136 3137 3138 3140 3142 3143 3144 3145 3146 3147 3147 3147 3147 3148 3149 3150 3151 3152 3153 3154 3155 3156 3157 3157 3157 3158 3158 3159 3160
3100 3100 3099 3099 3097 3096 3095 3094 3094 3092 3091 3090 3089 3088 3087 3086 3087 3087 3087 3088 3088 3088 3088 3088 3088 3088 3088 3090 3091 3093 3094 3095 3097 3098 3100 3102 3103 3106 3107 3109 3110 3112 3113 3114 3115 3117 3119 3121 3122 3123 3125 3127 3128 3129 3131 3133 3134 3135 3137 3138 3139 3140 3141 3141 3142 3143 3143 3144 3145 3146 3146 3147 3149 3150 3151 3152 3153 3154 3154 3155 3155 3156 3156 3156 3157
3098 3098 3097 3097 3096 3094 3093 3092 3091 3090 3089 3087 3086 3085 3084 3083 3083 3084 3084 3085 3086 3085 3086 3086 3086 3085 3086 3087 3089 3091 3092 3093 3095 3097 3098 3100 3102 3103 3105 3107 3108 3109 3111 3112 3113 3114 3116 3118 3120 3121 3122 3123 3124 3126 3128 3130 3131 3133 3134 3135 3136 3137 3137 3138 3139 3140 3141 3142 3143 3143 3144 3145 3146 3148 3149 3150 3151 3151 3151 3152 3153 3153 3154 3154 3154
3096 3096 3095 3095 3094 3092 3091 3089 3088 3087 3086 3085 3083 3082 3081 3080 3080 3080 3081 3082 3083 3083 3083 3084 3083 3083 3084 3085 3086 3088 3090 3092 3093 3095 3096 3097 3099 3101 3103 3104 3105 3107 3108 3110 3111 3112 3114 3115 3117 3118 3119 3120 3122 3123 3125 3126 3128 3129 3130 3131 3133 3134 3135 3135 3136 3137 3138 3139 3139 3140 3142 3144 3144 3145 3146 3147 3148 3149 3149 3150 3150 3151 3151 3152 3152
3095 3094 3093 3092 3091 3090 3089 3087 3086 3084 3083 3082 3080 3078 3077 3077 3077 3077 3077 3078 3079 3080 3080 3081 3081 3081 3081 3082 3084 3086 3088 3089 3091 3092 3094 3095 3096 3098 3100 3102 3103 3104 3105 3107 3108 3110 3111 3112 3114 3115 3117 3118 3119 3120 3121 3123 3125 3126 3127 3128 3130 3131 3132 3132 3133 3134 3135 3136 3136 3137 3139 3140 3141 3142 3143 3144 3145 3146 3146 3147 3148 3148 3149 3150 3150
3093 3092 3091 3090 3089 3088 3086 3085 3084 3082 3080 3079 3077 3075 3074 3073 3073 3073 3073 3074 3075 3076 3077 3078 3079 3078 3078 3079 3082 3084 3085 3086 3088 3090 3092 3093 3094 3096 3098 3099 3100 3101 3103 3104 3105 3107 3108 3110 3111 3113 3114 3115 3116 3117 3119 3120 3122 3123 3124 3125 3126 3128 3129 3129 3130 3131 3132 3133 3133 3134 3135 3136 3136 3137 3139 3140 3141 3142 3143 3144 3145 3146 3146 3147 3147
3091 3090 3089 3088 3087 3086 3084 3083 3082 3080 3078 3076 3074 3072 3070 3070 3070 3070 3070 3070 3070 3072 3073 3075 3076 3076 3076 3077 3079 3081 3083 3084 3085 3087 3089 3091 3092 3094 3095 3096 3098 3099 3100 3101 3103 3104 3106 3107 3108 3109 3110 3112 3114 3115 3116 3118 3119 3120 3121 3122 3123 3124 3125 3126 3126 3127 3128 3129 3130 3130 3131 3132 3132 3134 3135 3136 3137 3138 3140 3141 3142 3142 3143 3144 3144
3089 3088 3087 3086 3085 3084 3083 3081 3080 3078 3076 3074 3072 3069 3068 3067 3066 3066 3066 3066 3067 3068 3070 3070 3071 3073 3073 3073 3074 3077 3080 3081 3083 3085 3087 3089 3090 3091 3093 3094 3095 3096 3098 3099 3100 3102 3103 3104 3105 3106 3107 3109 3111 3112 3114 3115 3116 3117 3118 3119 3120 3121 3122 3122 3123 3124 3125 3125 3126 3127 3128 3128 3130 3131 3132 3133 3134 3135 3136 3137 3138 3139 3140 3140 3140
3087 3086 3085 3084 3083 3082 3081 3079 3078 3076 3075 3072 3070 3067 3065 3064 3063 3063 3062 3063 3064 3065 3066 3066 3067 3068 3069 3069 3071 3073 3075 3077 3079 3081 3084 3086 3087 3089 3090 3092 3093 3094 3095 3096 3097 3099 3100 3101 3102 3103 3104 3106 3108 3109 3111 3112 3113 3114 3115 3116 3117 3118 3118 3119 3120 3121 3121 3122 3123 3124 3125 3125 3127 3129 3129 3130 3131 3132 3133 3133 3134 3135 3136 3136 3136
3086 3085 3083 3082 3081 3080 3079 3077 3076 3074 3073 3071 3068 3066 3063 3061 3060 3060 3059 3059 3061 3062 3062 3063 3063 3064 3065 3067 3069 3070 3071 3072 3074 3077 3080 3082 3084 3086 3087 3089 3090 3091 3092 3093 3094 3095 3097 3098 3099 3100 3101 3103 3104 3106 3107 3109 3110 3111 3112 3113 3114 3114 3115 3116 3116 3117 3118 3119 3119 3120 3121 3122 3124 3125 3126 3127 3128 3129 3129 3130 3131 3132 3132 3132 3131
3085 3083 3082 3080 3079 3077 3076 3075 3074 3073 3071 3069 3067 3065 3062 3060 3058 3057 3056 3057 3057 3059 3059 3060 3060 3061 3062 3063 3065 3066 3068 3070 3072 3074 3076 3078 3080 3082 3084 3085 3087 3088 3089 3090 3091 3092 3094 3095 3096 3098 3099 3100 3101 3103 3104 3105 3107 3108 3109 3109 3110 3111 3112 3112 3113 3114 3114 3115 3116 3117 3118 3119 3120 3122 3123 3123 3124 3125 3125 3126 3127 3128 3128 3128 3127
3084 3082 3080 3079 3078 3076 3075 3074 3073 3071 3070 3068 3066 3064 3061 3059 3056 3055 3054 3054 3055 3055 3055 3056 3057 3057 3058 3059 3061 3063 3065 3067 3069 3071 3072 3074 3076 3078 3080 3082 3083 3085 3086 3087 3088 3089 3091 3092 3093 3094 3096 3097 3098 3099 3100 3102 3103 3104 3105 3106 3106 3107 3108 3108 3109 3110 3111 3112 3112 3113 3114 3115 3116 3118 3119 3119 3120 3121 3121 3122 3122 3123 3124 3124 3124
3083 3081 3079 3078 3077 3075 3074 3072 3071 3070 3068 3067 3065 3062 3060 3058 3056 3054 3053 3052 3053 3052 3052 3052 3053 3054 3055 3056 3057 3059 3061 3063 3065 3066 3068 3070 3072 3074 3076 3078 3080 3081 3083 3084 3085 3086 3087 3088 3089 3091 3092 3093 3095 3096 3098 3099 3100 3101 3101 3102 3103 3104 3104 3105 3106 3106 3107 3108 3109 3110 3111 3112 3113 3114 3114 3115 3116 3116 3117 3118 3118 3118 3119 3119 3120
3083 3081 3079 3078 3076 3075 3073 3071 3070 3068 3067 3065 3063 3061 3059 3057 3055 3053 3051 3050 3050 3049 3049 3049 3049 3049 3050 3051 3052 3054 3056 3058 3061 3062 3064 3065 3068 3070 3072 3074 3075 3077 3079 3080 3082 3083 3084 3085 3086 3087 3089 3090 3091 3093 3095 3096 3098 3098 3098 3098 3099 3100 3101 3101 3102 3103 3104 3105 3106 3107 3108 3108 3109 3110 3111 3111 3112 3113 3113 3114 3114 3115 3115 3115 3115
3082 3081 3079 3078 3076 3075 3073 3071 3069 3068 3066 3064 3062 3060 3058 3056 3054 3052 3050 3049 3048 3047 3046 3045 3045 3045 3046 3047 3048 3049 3051 3053 3055 3057 3059 3061 3063 3066 3068 3070 3071 3073 3075 3076 3078 3079 3080 3081 3083 3084 3085 3087 3088 3090 3091 3093 3094 3095 3095 3095 3095 3096 3097 3098 3099 3100 3101 3101 3102 3103 3104 3105 3105 3106 3106 3107 3108 3109 3109 3110 3110 3111 3111 3111 3111
3082 3081 3079 3078 3077 3075 3073 3071 3069 3067 3065 3064 3062 3060 3058 3056 3054 3052 3050 3048 3047 3046 3044 3043 3042 3042 3043 3044 3044 3045 3046 3048 3051 3052 3054 3057 3060 3061 3064 3066 3068 3069 3071 3073 3074 3075 3076 3077 3079 3080 3082 3083 3085 3086 3087 3089 3090 3090 3091 3091 3092 3092 3093 3094 3095 3096 3096 3097 3098 3099 3100 3101 3101 3102 3103 3103 3104 3105 3105 3106 3106 3106 3107 3107 3107
3082 3080 3079 3078 3076 3075 3073 3071 3069 3067 3065 3063 3062 3060 3059 3057 3055 3053 3050 3048 3046 3045 3044 3043 3041 3041 3041 3042 3042 3042 3043 3044 3046 3047 3050 3053 3055 3057 3059 3061 3063 3065 3066 3068 3070 3071 3072 3074 3075 3076 3078 3079 3081 3082 3083 3084 3085 3086 3087 3087 3088 3088 3089 3090 3090 3091 3092 3093 3094 3095 3095 3096 3097 3098 3098 3099 3100 3101 3101 3101 3102 3102 3102 3102 3102
3081 3080 3078 3076 3075 3074 3072 3070 3069 3067 3066 3064 3062 3060 3058 3057 3055 3053 3051 3049 3047 3046 3044 3043 3042 3041 3041 3041 3041 3041 3041 3041 3041 3042 3045 3049 3051 3053 3055 3057 3059 3060 3062 3064 3065 3067 3068 3070 3071 3072 3074 3075 3076 3078 3079 3080 3080 3081 3082 3083 3083 3084 3085 3085 3086 3086 3087 3088 3089 3090 3091 3091 3092 3093 3094 3095 3096 3096 3097 3097 3097 3097 3098 3098 3098
3081 3079 3077 3076 3074 3072 3071 3069 3068 3067 3065 3064 3062 3060 3059 3057 3055 3054 3052 3050 3049 3047 3045 3044 3043 3042 3042 3041 3041 3041 3041 3041 3040 3039 3042 3045 3047 3050 3052 3054 3056 3057 3058 3060 3062 3063 3065 3066 3067 3069 3070 3072 3073 3074 3075 3075 3076 3077 3078 3078 3078 3079 3080 3080 3081 3082 3083 3083 3084 3085 3086 3086 3087 3089 3089 3090 3091 3092 3092 3093 3093 3093 3094 3093 3093
3080 3078 3077 3075 3073 3072 3070 3069 3067 3065 3064 3063 3062 3060 3059 3057 3056 3054 3053 3051 3050 3048 3047 3045 3044 3043 3042 3042 3042 3041 3042 3042 3042 3041 3041 3042 3044 3046 3048 3051 3052 3052 3054 3056 3058 3059 3060 3061 3062 3064 3066 3067 3069 3070 3070 3071 3072 3072 3073 3073 3073 3074 3074 3076 3077 3078 3078 3079 3080 3081 3082 3082 3083 3084 3085 3086 3087 3088 3088 3088 3088 3089 3089 3089 3089
3080 3078 3076 3075 3073 3071 3070 3068 3066 3065 3063 3062 3060 3059 3058 3057 3056 3054 3053 3052 3050 3049 3048 3046 3045 3044 3043 3043 3043 3042 3042 3042 3042 3042 3042 3042 3042 3043 3045 3047 3049 3049 3050 3051 3053 3054 3054 3055 3057 3058 3060 3062 3064 3065 3065 3066 3067 3068 3068 3069 3069 3070 3071 3072 3073 3074 3075 3076 3077 3077 3078 3079 3079 3080 3081 3082 3083 3083 3084 3085 3085 3085 3085 3085 3085
3079 3078 3076 3074 3073 3071 3069 3068 3066 3064 3063 3061 3059 3058 3057 3056 3055 3054 3052 3051 3050 3049 3048 3047 3046 3045 3044 3043 3043 3042 3042 3042 3042 3042 3043 3043 3043 3043 3044 3045 3047 3047 3048 3049 3050 3050 3050 3050 3052 3053 3055 3057 3059 3060 3061 3063 3063 3064 3065 3066 3066 3066 3067 3068 3070 3071 3072 3072 3073 3073 3074 3074 3075 3076 3077 3079 3080 3081 3081 3082 3082 3082 3082 3082 3082
3079 3078 3076 3074 3072 3071 3069 3067 3066 3064 3063 3061 3059 3057 3056 3055 3054 3053 3051 3051 3050 3049 3048 3047 3046 3045 3044 3044 3043 3042 3042 3041 3041 3041 3041 3042 3042 3042 3043 3044 3045 3046 3047 3047 3049 3049 3049 3049 3049 3051 3052 3054 3055 3057 3058 3059 3060 3061 3062 3063 3063 3063 3064 3065 3066 3067 3068 3069 3069 3069 3070 3071 3072 3073 3075 3076 3077 3078 3079 3080 3080 3080 3080 3079 3079
3079 3077 3076 3074 3072 3070 3069 3067 3065 3064 3062 3061 3059 3057 3056 3054 3053 3052 3050 3049 3049 3048 3047 3046 3046 3045 3044 3044 3043 3042 3042 3041 3041 3041 3040 3040 3040 3040 3041 3041 3042 3043 3044 3045 3046 3047 3048 3048 3048 3048 3050 3051 3052 3054 3055 3056 3057 3058 3059 3059 3060 3061 3062 3062 3063 3064 3065 3066 3066 3067 3068 3069 3070 3071 3072 3073 3075 3076 3077 3077 3077 3077 3077 3076 3076
3079 3077 3075 3074 3072 3071 3069 3067 3065 3064 3062 3061 3059 3058 3056 3054 3053 3051 3050 3049 3048 3047 3046 3046 3045 3044 3044 3043 3043 3042 3042 3041 3041 3040 3040 3040 3039 3039 3039 3040 3040 3040 3041 3042 3043 3044 3044 3045 3045 3046 3047 3048 3049 3050 3052 3053 3054 3055 3056 3057 3058 3059 3060 3061 3062 3063 3063 3064 3065 3065 3066 3067 3067 3069 3070 3071 3072 3073 3074 3074 3074 3074 3073 3073 3072
3079 3077 3075 3074 3072 3071 3069 3067 3066 3064 3062 3061 3059 3058 3056 3055 3053 3051 3050 3048 3047 3046 3045 3045 3044 3043 3043 3042 3042 3041 3041 3041 3041 3040 3040 3039 3039 3039 3039 3039 3039 3039 3040 3040 3041 3042 3042 3042 3043 3044 3045 3046 3047 3048 3049 3050 3051 3052 3053 3054 3056 3057 3058 3060 3061 3062 3062 3063 3064 3064 3065 3065 3066 3067 3068 3069 3070 3071 3071 3071 3071 3071 3070 3069 3069
3079 3077 3076 3074 3072 3071 3069 3068 3066 3065 3063 3061 3059 3058 3056 3055 3053 3052 3050 3048 3047 3046 3044 3044 3043 3043 3042 3041 3041 3040 3040 3040 3040 3039 3039 3039 3039 3039 3039 3039 3039 3039 3039 3040 3040 3040 3041 3041 3042 3043 3044 3044 3045 3046 3047 3048 3049 3050 3051 3053 3054 3056 3057 3059 3060 3061 3062 3062 3063 3064 3064 3065 3065 3066 3066 3067 3067 3068 3068 3068 3067 3067 3067 3066 3065
3080 3078 3076 3074 3073 3071 3070 3069 3067 3065 3064 3062 3060 3059 3057 3055 3054 3052 3051 3049 3047 3046 3044 3043 3042 3041 3041 3040 3040 3039 3039 3038 3038 3038 3038 3038 3038 3038 3038 3038 3038 3039 3039 3039 3040 3040 3040 3041 3041 3042 3043 3043 3044 3044 3045 3046 3048 3049 3051 3052 3054 3055 3057 3058 3059 3060 3061 3062 3062 3063 3063 3064 3064 3064 3064 3064 3064 3064 3064 3064 3064 3063 3063 3062 3061
3080 3078 3077 3075 3073 3072 3071 3069 3068 3067 3065 3063 3061 3060 3058 3056 3054 3052 3051 3049 3048 3046 3044 3043 3042 3041 3040 3040 3039 3038 3038 3037 3037 3037 3037 3036 3036 3037 3037 3037 3037 3038 3038 3039 3039 3040 3040 3040 3041 3041 3042 3043 3043 3044 3045 3047 3048 3050 3051 3053 3054 3055 3056 3057 3058 3059 3060 3061 3061 3061 3062 3062 3062 3062 3062 3062 3062 3061 3061 3061 3060 3060 3059 3058 3057
3080 3079 3077 3076 3074 3073 3071 3070 3069 3067 3066 3064 3063 3061 3059 3057 3055 3053 3051 3050 3048 3047 3045 3043 3042 3041 3040 3039 3038 3038 3037 3037 3036 3036 3036 3036 3035 3035 3036 3036 3036 3037 3037 3038 3039 3039 3040 3040 3041 3041 3042 3042 3043 3045 3046 3047 3049 3050 3051 3052 3053 3054 3055 3056 3057 3058 3058 3059 3059 3060 3060 3060 3060 3060 3060 3059 3059 3058 3058 3058 3057 3056 3056 3055 3053
3081 3079 3078 3076 3075 3073 3072 3071 3069 3068 3067 3065 3063 3061 3060 3058 3056 3054 3052 3050 3049 3047 3046 3044 3042 3041 3040 3039 3038 3037 3036 3036 3036 3035 3035 3035 3035 3035 3035 3035 3036 3036 3037 3038 3038 3039 3040 3040 3040 3041 3041 3042 3044 3045 3046 3047 3049 3050 3051 3052 3052 3053 3054 3055 3055 3056 3056 3057 3057 3057 3057 3058 3057 3057 3057 3056 3056 3056 3055 3054 3054 3053 3052 3051 3050
3082 3080 3078 3077 3075 3074 3072 3071 3069 3068 3067 3065 3063 3062 3060 3058 3056 3055 3053 3051 3049 3048 3046 3045 3043 3041 3040 3038 3037 3036 3036 3035 3035 3035 3035 3034 3034 3035 3035 3035 3035 3036 3037 3037 3038 3039 3039 3040 3040 3041 3041 3042 3043 3045 3046 3047 3048 3049 3050 3050 3051 3052 3052 3053 3053 3054 3054 3054 3055 3055 3055 3055 3055 3055 3054 3054 3053 3053 3052 3051 3050 3050 3049 3049 3048
3082 3080 3079 3077 3075 3074 3072 3071 3069 3068 3066 3065 3063 3062 3060 3058 3056 3055 3053 3051 3049 3048 3046 3045 3043 3042 3040 3038 3037 3036 3036 3035 3035 3034 3034 3034 3034 3034 3035 3035 3035 3036 3036 3037 3037 3038 3038 3039 3040 3040 3041 3042 3043 3044 3045 3046 3047 3048 3048 3049 3050 3050 3050 3051 3051 3051 3052 3052 3052 3053 3053 3053 3052 3052 3052 3051 3051 3050 3049 3049 3048 3048 3047 3047 3046
3082 3080 3079 3077 3075 3074 3072 3071 3069 3067 3066 3064 3063 3062 3060 3058 3056 3055 3053 3051 3050 3048 3046 3045 3043 3042 3040 3039 3037 3036 3036 3035 3035 3034 3034 3034 3034 3034 3034 3035 3035 3035 3035 3036 3036 3037 3038 3038 3039 3040 3040 3041 3042 3043 3044 3045 3046 3047 3047 3048 3048 3048 3049 3049 3049 3049 3050 3050 3050 3050 3050 3050 3050 3050 3049 3049 3048 3048 3047 3047 3047 3046 3046 3045 3044
3081 3080 3078 3077 3075 3073 3072 3070 3069 3067 3065 3064 3062 3061 3059 3058 3056 3054 3053 3051 3050 3048 3047 3045 3043 3042 3041 3039 3038 3037 3036 3035 3034 3034 3033 3033 3033 3033 3034 3034 3034 3034 3035 3035 3036 3036 3037 3038 3038 3039 3040 3040 3041 3042 3043 3044 3045 3045 3046 3046 3046 3047 3047 3047 3047 3047 3048 3048 3048 3048 3048 3048 3048 3047 3047 3046 3046 3046 3046 3045 3045 3044 3043 3043 3042
3081 3080 3078 3076 3075 3073 3071 3070 3068 3067 3065 3063 3062 3060 3059 3057 3056 3054 3052 3051 3049 3048 3046 3045 3043 3042 3040 3039 3038 3037 3036 3035 3034 3034 3033 3033 3033 3033 3033 3033 3034 3034 3034 3034 3035 3036 3036 3037 3037 3038 3039 3040 3040 3041 3042 3043 3043 3044 3044 3044 3045 3045 3045 3045 3045 3045 3046 3046 3046 3046 3046 3045 3045 3045 3045 3044 3044 3044 3044 3043 3043 3042 3042 3041 3040
3081 3079 3077 3076 3074 3073 3071 3070 3068 3066 3065 3063 3062 3060 3058 3057 3055 3053 3052 3050 3049 3047 3046 3044 3043 3041 3040 3038 3037 3037 3036 3035 3034 3033 3033 3033 3032 3032 3032 3033 3033 3033 3033 3034 3034 3035 3035 3036 3036 3037 3038 3038 3039 3040 3040 3041 3042 3042 3043 3043 3043 3043 3043 3043 3043 3043 3044 3044 3044 3044 3044 3043 3043 3043 3043 3043 3042 3042 3042 3042 3041 3041 3040 3039 3039
3080 3079 3077 3075 3074 3072 3071 3069 3068 3066 3065 3063 3061 3060 3058 3056 3055 3053 3051 3050 3048 3047 3045 3044 3042 3041 3040 3038 3037 3036 3035 3035 3034 3033 3033 3032 3032 3032 3032 3032 3032 3032 3033 3033 3034 3034 3035 3035 3036 3036 3037 3037 3038 3039 3039 3040 3040 3041 3041 3041 3041 3041 3041 3041 3042 3042 3042 3042 3042 3042 3042 3041 3041 3041 3041 3041 3041 3041 3041 3041 3041 3040 3039 3038 3038
3079 3078 3076 3075 3073 3071 3070 3068 3067 3066 3064 3063 3061 3059 3058 3056 3054 3053 3051 3049 3048 3047 3045 3044 3042 3041 3040 3039 3037 3036 3035 3034 3034 3033 3033 3032 3032 3032 3032 3032 3032 3032 3032 3032 3033 3033 3034 3034 3035 3035 3036 3036 3037 3037 3038 3039 3039 3039 3039 3040 3040 3040 3040 3040 3040 3041 3041 3040 3040 3040 3040 3040 3040 3040 3040 3041 3041 3041 3041 3041 3040 3039 3039 3038 3037
3078 3077 3075 3074 3072 3071 3069 3068 3066 3065 3063 3062 3061 3059 3057 3056 3054 3053 3051 3049 3048 3047 3045 3044 3042 3041 3040 3039 3037 3036 3035 3034 3033 3032 3032 3032 3032 3031 3031 3031 3031 3032 3032 3032 3033 3033 3033 3034 3034 3035 3035 3036 3036 3037 3037 3037 3038 3038 3038 3038 3038 3039 3039 3039 3039 3039 3039 3039 3039 3039 3039 3039 3039 3040 3040 3041 3041 3041 3040 3040 3039 3038 3038 3037 3036
3077 3076 3074 3073 3071 3070 3068 3067 3065 3064 3063 3061 3060 3059 3057 3056 3054 3052 3051 3049 3048 3046 3045 3044 3043 3041 3040 3038 3037 3036 3035 3034 3033 3032 3031 3031 3031 3031 3031 3031 3031 3031 3032 3032 3033 3033 3033 3034 3034 3034 3035 3035 3036 3036 3036 3037 3037 3037 3037 3037 3037 3038 3038 3038 3038 3038 3038 3038 3038 3038 3039 3039 3040 3040 3040 3040 3040 3040 3039 3038 3038 3037 3036 3036 3036
3076 3074 3073 3071 3070 3069 3067 3066 3065 3063 3062 3061 3059 3058 3057 3055 3054 3052 3051 3049 3047 3046 3045 3044 3043 3041 3040 3038 3037 3036 3034 3034 3033 3032 3031 3030 3030 3030 3030 3030 3030 3030 3031 3032 3032 3033 3033 3033 3034 3034 3034 3035 3035 3035 3036 3036 3036 3036 3036 3037 3037 3037 3038 3038 3037 3037 3037 3037 3038 3038 3039 3039 3039 3039 3039 3039 3038 3038 3038 3037 3037 3036 3036 3035 3035
3074 3073 3072 3071 3069 3068 3067 3065 3064 3063 3061 3060 3059 3057 3056 3054 3053 3052 3051 3049 3047 3046 3045 3044 3042 3041 3040 3038 3037 3036 3035 3034 3033 3032 3031 3030 3030 3029 3029 3029 3029 3030 3030 3031 3031 3032 3032 3033 3033 3034 3034 3034 3034 3035 3035 3035 3035 3035 3036 3036 3036 3037 3037 3036 3036 3036 3036 3037 3038 3038 3039 3039 3038 3038 3038 3037 3037 3037 3037 3036 3036 3036 3035 3035 3034
3073 3072 3071 3070 3068 3067 3066 3064 3063 3062 3061 3059 3058 3057 3055 3054 3053 3052 3050 3048 3047 3046 3045 3044 3042 3041 3040 3039 3037 3036 3035 3034 3033 3032 3031 3031 3030 3030 3029 3029 3029 3029 3030 3030 3030 3031 3031 3032 3032 3033 3033 3033 3033 3034 3034 3034 3034 3034 3035 3035 3036 3036 3036 3035 3035 3036 3037 3037 3038 3038 3038 3038 3037 3037 3036 3036 3036 3036 3036 3036 3035 3035 3035 3034 3034